Regional Weather Roundup
Issued by NWS Newport/Morehead, NC

Current Version | Previous Version | Graphics & Text | Print | Product List | Glossary Off
Versions: 1 2 3 4 5 6 7 8 9 10 11 12 13 14 15 16 17 18 19 20 21 22 23 24 25 26 27 28 29 30 31 32 33 34 35 36 37 38 39 40 41 42 43 44 45 46 47 48 49 50

000
ASUS42 KMHX 040112
RWRMHX
WEATHER ROUNDUP FOR EASTERN NORTH CAROLINA
NATIONAL WEATHER SERVICE NEWPORT/MOREHEAD CITY NC
800 PM EST TUE MAR 03 2015

NOTE: "FAIR" INDICATES FEW OR NO CLOUDS BELOW 12,000 FEET
WITH NO SIGNIFICANT WEATHER AND/OR OBSTRUCTIONS TO VISIBILITY

NCZ015>017-031-032-045>047-102-103-040200-
NORTH COAST

CITY           SKY/WX    TMP DP  RH WIND       PRES   REMARKS
EDENTON        CLOUDY    41  38  89 S5        30.14F
ELIZABETH CITY CLOUDY    43  36  76 SW6       30.14F
KITTY HAWK     CLOUDY    50  47  90 S6        30.13F
MANTEO         CLOUDY    46  45  93 S15       30.15F

$$

NCZ045>047-081-094-103-104-040200-
CENTRAL COAST

CITY           SKY/WX    TMP DP  RH WIND       PRES   REMARKS
FRISCO         CLOUDY    53  51  93 S13       30.17F
SWANQUARTER      N/A     48 N/A N/A S2        30.12S

$$

NCZ095-097-098-100-101-040200-
SOUTHERN COAST

CITY           SKY/WX    TMP DP  RH WIND       PRES   REMARKS
BEAUFORT       CLOUDY    56  55  97 S10       30.15F
CEDAR ISLAND     N/A     61 N/A N/A S15G22    30.18S
JACKSONVILLE   LGT RAIN  46  44  93 N3        30.17S VSB 1/2
PINEY ISLAND     N/A    N/A N/A N/A MISG      30.16S
WILMINGTON     CLOUDY    46  45  96 NW5       30.17S FOG


$$

NCZ011>013-027>030-043-044-078>080-089-090>093-098-040200-
COASTAL PLAIN

CITY           SKY/WX    TMP DP  RH WIND       PRES   REMARKS
AHOSKIE        CLOUDY    37  36  95 CALM      30.16F FOG
CLINTON        CLOUDY    40  40 100 CALM      30.18R FOG
ELIZABETHTOWN  CLOUDY    40  40 100 CALM      30.16F FOG
GOLDSBORO      CLOUDY    40  40 100 S2        30.13F FOG
GREENVILLE     CLOUDY    41  41 100 CALM      30.16F FOG
HAVELOCK       RAIN      45  42  89 NW6       30.18S
KENANSVILLE    CLOUDY    40  40  99 CALM      30.16F FOG
KINSTON        CLOUDY    41  41 100 CALM      30.16F FOG
NEW BERN       LGT RAIN  46  44  93 CALM      30.18F FOG
RICHLANDS      CLOUDY    43  39  87 CALM      30.17F
ROCKY MOUNT    CLOUDY    38  37  97 NW3       30.16S FOG
WASHINGTON     DRIZZLE   42  41  97 CALM      30.15F
WHITEVILLE     CLOUDY    42  41  95 CALM      30.16F FOG

$$

AMZ130-135-150-152-154-156-158-170-250-252-270-ANZ085-086-088-633-658-670-040200-
MARINE OBSERVATIONS

STATION/POSITION TIME  TEMP    WIND        PRES    WAVE   SWELL
                       AIR SEA DIR/SP/G            HT/PER HT/PER
                 (UTC) (F)     (DEG/KT/KT) (MB)    (FT/S) (FT/S)
CHESAPEAKE LIGHT 0000   37     220/ 10/ 10 1021.2
64 E VA BEACH    0050   59 58  180/ 27/ 31 1019.0    5/ 5   2/ 8
DUCK             0000   48 35  190/ 13/ 16 1020.0
2 E DUCK         0011      35                N/A     3/ 5
10 NE DUCK       0022      37                N/A     3/ 5
OREGON INLET     0000   47 41  160/  8/ 11 1021.6
HATTERAS CG      0000   52 44  160/  9/ 12 1021.9
CAPE LOOKOUT     0100   57     160/ 17/ 18 1020.7
BEAUFORT LAB     0000   55 44  160/  8/ 10 1020.3
27 SE WRIGHTSVLE NOT AVBL
5 SE WRIGHTSVLE  NOT AVBL
225 S CAPE HAT   0050   68 72  160/ 17/ 21 1024.5    6/ 9   3/ 9
41 SE CHARLESTON 0050   61 68  350/  6/  8 1021.3    5/ 8   5/ 8

$$


USA.gov is the U.S. government's official web portal to all federal, state and local government web resources and services.